Estación de Codegua
Ultimos registro cada 15 minutos 31
| N° | Estación | Fecha / Hora | Temperatura | Humedad | Lluvia | Velocidad | Dirección | Radiación | Presion |
| 31 | Codegua | 08-05-2026 07:30 | 1,7 | 99,9 | 0 | 0 | 175 | 3,1 | 962,1 |
| 30 | Codegua | 08-05-2026 07:15 | 2,2 | 99,9 | 0 | 0 | 175 | 0,6 | 962,3 |
| 29 | Codegua | 08-05-2026 07:00 | 2,9 | 99,9 | 0 | 0 | 175 | 0,6 | 962,4 |
| 28 | Codegua | 08-05-2026 06:45 | 3,1 | 99,9 | 0 | 0 | 175 | 0,6 | 962,5 |
| 27 | Codegua | 08-05-2026 06:30 | 2,3 | 99,7 | 0 | 0 | 175 | 0,6 | 962,8 |
| 26 | Codegua | 08-05-2026 06:15 | 2,2 | 99,7 | 0 | 0 | 175 | 0,6 | 963 |
| 25 | Codegua | 08-05-2026 06:00 | 2 | 99,4 | 0 | 0 | 175 | 0,6 | 962,7 |
| 24 | Codegua | 08-05-2026 05:45 | 2,1 | 99 | 0 | 0 | 175 | 0,6 | 962,4 |
| 23 | Codegua | 08-05-2026 05:30 | 2,1 | 99,1 | 0 | 0 | 175 | 0,6 | 962,5 |
| 22 | Codegua | 08-05-2026 05:15 | 2,8 | 99,1 | 0 | 0 | 175 | 0,6 | 962,4 |
| 21 | Codegua | 08-05-2026 05:00 | 2,9 | 98,9 | 0 | 0 | 175 | 0,6 | 962,1 |
| 20 | Codegua | 08-05-2026 04:45 | 2,6 | 98,5 | 0 | 0 | 175 | 0,6 | 962,2 |
| 19 | Codegua | 08-05-2026 04:30 | 3,7 | 98,7 | 0 | 0 | 175 | 0,6 | 961,9 |
| 18 | Codegua | 08-05-2026 04:15 | 3,8 | 98,7 | 0 | 0 | 175 | 0,6 | 961,7 |
| 17 | Codegua | 08-05-2026 04:00 | 4 | 98,6 | 0 | 0 | 177 | 0,6 | 962 |
| 16 | Codegua | 08-05-2026 03:45 | 3,6 | 98,1 | 0 | 0 | 177 | 0,6 | 962,3 |
| 15 | Codegua | 08-05-2026 03:30 | 3,8 | 97,9 | 0 | 0 | 177 | 0,6 | 962,4 |
| 14 | Codegua | 08-05-2026 03:15 | 4,2 | 97,9 | 0 | 0 | 177 | 0,6 | 962,6 |
| 13 | Codegua | 08-05-2026 03:00 | 4,1 | 97,6 | 0 | 0 | 177 | 0,6 | 962,9 |
| 12 | Codegua | 08-05-2026 02:45 | 4,5 | 97,4 | 0 | 0 | 177 | 0,6 | 963,1 |
| 11 | Codegua | 08-05-2026 02:30 | 5,4 | 97,3 | 0 | 0 | 177 | 0,6 | 962,9 |
| 10 | Codegua | 08-05-2026 02:15 | 6 | 97,5 | 0 | 0 | 177 | 0,6 | 963 |
| 9 | Codegua | 08-05-2026 02:00 | 6,1 | 96,8 | 0 | 0 | 177 | 0,6 | 963,3 |
| 8 | Codegua | 08-05-2026 01:45 | 6,7 | 96,3 | 0 | 0 | 177 | 0,6 | 963,4 |
| 7 | Codegua | 08-05-2026 01:30 | 7 | 96,5 | 0 | 0 | 177 | 0,6 | 963,6 |
| 6 | Codegua | 08-05-2026 01:15 | 7 | 95,9 | 0 | 0 | 177 | 0,6 | 963,5 |
| 5 | Codegua | 08-05-2026 01:00 | 6,9 | 95 | 0 | 0 | 178 | 0,6 | 963,6 |
| 4 | Codegua | 08-05-2026 00:45 | 7,3 | 94,9 | 0 | 0 | 191 | 0,6 | 963,8 |
| 3 | Codegua | 08-05-2026 00:30 | 7,7 | 93,9 | 0 | 0 | 191 | 0,6 | 964,2 |
| 2 | Codegua | 08-05-2026 00:15 | 8,2 | 93,7 | 0 | 0 | 191 | 0,6 | 963,6 |
| 1 | Codegua | 08-05-2026 00:00 | 8,5 | 93,3 | 0 | 0 | 191 | 0,6 | 964,1 |